GALAXY 33 (G-33)

Last updated on Sat Jun 14 2025 00:02:48 GMT+0000 (Coordinated Universal Time)

1 54026U 22128A 25164.48933551 .00000094 00000+0 00000+0 0 9999 2 54026 0.0168 355.2343 0002087 88.6404 221.3385 1.00270920 10046
UTC large
Height (km)
Speed (km/s)
/
Latitude / Longitude
Inclination (degrees)
Orbital Period (minutes)
Azimuth
Elevation
Range (km)
Doppler Factor

Next 0 passes for location: London (51.5072 / 0.1276)

Sorry there are no passes over London.